Time,TemperatureF,DewpointF,PressureIn,WindDirection,WindDirectionDegrees,WindSpeedMPH,WindSpeedGustMPH,Humidity,HourlyPrecipIn,Conditions,Clouds,dailyrainin,SoftwareType,DateUTC
2013-08-12 00:00:00,54.0,-99.9,-100.00,SW,216,77.0,-999.0,-999,-99.99,,,0.00,,2013-08-12 06:00:00,
2013-08-12 00:42:00,54.0,-99.9,-100.00,SW,216,77.0,-999.0,-999,-99.99,,,0.00,,2013-08-12 06:42:00,
2013-08-12 00:52:00,54.0,-99.9,-100.00,SW,216,77.0,-999.0,-999,-99.99,,,0.00,,2013-08-12 06:52:00,
2013-08-12 01:00:00,50.0,-99.9,-100.00,North,-999,-999.0,-999.0,-999,-99.99,,,-99.99,,2013-08-12 07:00:00,
2013-08-12 01:53:00,50.0,-99.9,-100.00,North,-999,-999.0,-999.0,-999,-99.99,,,-99.99,,2013-08-12 07:53:00,
2013-08-12 02:00:00,49.0,-99.9,-100.00,West,271,95.0,-999.0,-999,-99.99,,,0.00,,2013-08-12 08:00:00,
2013-08-12 02:53:00,49.0,-99.9,-100.00,West,271,95.0,-999.0,-999,-99.99,,,0.00,,2013-08-12 08:53:00,
2013-08-12 03:00:00,53.0,-99.9,-100.00,West,276,96.0,-999.0,-999,-99.99,,,0.00,,2013-08-12 09:00:00,
2013-08-12 03:53:00,53.0,-99.9,-100.00,West,276,96.0,-999.0,-999,-99.99,,,0.00,,2013-08-12 09:53:00,
2013-08-12 04:00:00,50.0,-99.9,-100.00,West,269,92.0,-999.0,-999,-99.99,,,0.00,,2013-08-12 10:00:00,
2013-08-12 04:52:00,50.0,-99.9,-100.00,West,269,92.0,-999.0,-999,-99.99,,,0.00,,2013-08-12 10:52:00,
2013-08-12 05:00:00,49.0,-99.9,-100.00,West,281,96.0,-999.0,-999,-99.99,,,-99.99,,2013-08-12 11:00:00,
2013-08-12 05:53:00,49.0,-99.9,-100.00,West,281,96.0,-999.0,-999,-99.99,,,-99.99,,2013-08-12 11:53:00,
2013-08-12 06:00:00,50.0,-99.9,-100.00,West,263,94.0,-999.0,-999,-99.99,,,-99.99,,2013-08-12 12:00:00,
2013-08-12 06:52:00,50.0,-99.9,-100.00,West,263,94.0,-999.0,-999,-99.99,,,-99.99,,2013-08-12 12:52:00,
2013-08-12 07:00:00,54.0,-99.9,-100.00,SW,235,84.0,-999.0,-999,-99.99,,,-99.99,,2013-08-12 13:00:00,
2013-08-12 07:53:00,54.0,-99.9,-100.00,SW,235,84.0,-999.0,-999,-99.99,,,-99.99,,2013-08-12 13:53:00,
2013-08-12 08:00:00,63.0,-99.9,-100.00,SSE,161,67.0,-999.0,-999,-99.99,,,-99.99,,2013-08-12 14:00:00,
2013-08-12 08:53:00,63.0,-99.9,-100.00,SSE,161,67.0,-999.0,-999,-99.99,,,-99.99,,2013-08-12 14:53:00,
2013-08-12 09:00:00,66.0,-99.9,-100.00,SE,136,52.0,-999.0,-999,-99.99,,,-99.99,,2013-08-12 15:00:00,
2013-08-12 09:52:00,66.0,-99.9,-100.00,SE,136,52.0,-999.0,-999,-99.99,,,-99.99,,2013-08-12 15:52:00,
2013-08-12 10:00:00,68.0,-99.9,-100.00,ESE,121,48.0,-999.0,-999,-99.99,,,0.00,,2013-08-12 16:00:00,
2013-08-12 10:53:00,68.0,-99.9,-100.00,ESE,121,48.0,-999.0,-999,-99.99,,,0.00,,2013-08-12 16:53:00,
2013-08-12 11:00:00,68.0,-99.9,-100.00,ESE,122,45.0,-999.0,-999,-99.99,,,0.00,,2013-08-12 17:00:00,
2013-08-12 11:52:00,68.0,-99.9,-100.00,ESE,122,45.0,-999.0,-999,-99.99,,,0.00,,2013-08-12 17:52:00,
2013-08-12 12:00:00,64.0,-99.9,-100.00,SE,130,51.0,-999.0,-999,-99.99,,,0.00,,2013-08-12 18:00:00,
2013-08-12 12:43:00,64.0,-99.9,-100.00,SE,130,51.0,-999.0,-999,-99.99,,,0.00,,2013-08-12 18:43:00,
2013-08-12 12:52:00,64.0,-99.9,-100.00,SE,130,51.0,-999.0,-999,-99.99,,,0.00,,2013-08-12 18:52:00,
2013-08-12 13:00:00,63.0,-99.9,-100.00,South,183,79.0,-999.0,-999,-99.99,,,0.00,,2013-08-12 19:00:00,
2013-08-12 13:52:00,63.0,-99.9,-100.00,South,183,79.0,-999.0,-999,-99.99,,,0.00,,2013-08-12 19:52:00,
2013-08-12 14:00:00,59.0,-99.9,-100.00,South,190,78.0,-999.0,-999,-99.99,,,0.00,,2013-08-12 20:00:00,
2013-08-12 14:42:00,60.0,-99.9,-100.00,South,190,78.0,-999.0,-999,-99.99,,,0.00,,2013-08-12 20:42:00,
2013-08-12 14:52:00,59.0,-99.9,-100.00,South,190,78.0,-999.0,-999,-99.99,,,0.00,,2013-08-12 20:52:00,
2013-08-12 15:00:00,58.0,-99.9,-100.00,SSW,203,78.0,-999.0,-999,-99.99,,,0.00,,2013-08-12 21:00:00,
2013-08-12 15:52:00,58.0,-99.9,-100.00,SSW,203,78.0,-999.0,-999,-99.99,,,0.00,,2013-08-12 21:52:00,
2013-08-12 16:00:00,53.0,-99.9,-100.00,WNW,289,105.0,-999.0,-999,-99.99,,,0.00,,2013-08-12 22:00:00,
2013-08-12 16:43:00,53.0,-99.9,-100.00,WNW,289,105.0,-999.0,-999,-99.99,,,0.00,,2013-08-12 22:43:00,
2013-08-12 17:00:00,62.0,-99.9,-100.00,SSW,194,102.0,-999.0,-999,-99.99,,,0.00,,2013-08-12 23:00:00,
2013-08-12 17:54:00,62.0,-99.9,-100.00,SSW,194,102.0,-999.0,-999,-99.99,,,0.00,,2013-08-12 23:54:00,
2013-08-12 18:00:00,57.0,-99.9,-100.00,SSW,192,73.0,-999.0,-999,-99.99,,,0.00,,2013-08-13 00:00:00,
2013-08-12 18:54:00,57.0,-99.9,-100.00,SSW,192,73.0,-999.0,-999,-99.99,,,0.00,,2013-08-13 00:54:00,
2013-08-12 19:00:00,55.0,-99.9,-100.00,SSW,204,71.0,-999.0,-999,-99.99,,,0.00,,2013-08-13 01:00:00,
2013-08-12 19:55:00,55.0,-99.9,-100.00,SSW,204,71.0,-999.0,-999,-99.99,,,0.00,,2013-08-13 01:55:00,
2013-08-12 20:00:00,52.0,-99.9,-100.00,SW,235,84.0,-999.0,-999,-99.99,,,0.00,,2013-08-13 02:00:00,
2013-08-12 20:52:00,52.0,-99.9,-100.00,SW,235,84.0,-999.0,-999,-99.99,,,0.00,,2013-08-13 02:52:00,
2013-08-12 21:00:00,53.0,-99.9,-100.00,WSW,258,93.0,-999.0,-999,-99.99,,,0.00,,2013-08-13 03:00:00,
2013-08-12 21:54:00,53.0,-99.9,-100.00,WSW,258,93.0,-999.0,-999,-99.99,,,0.00,,2013-08-13 03:54:00,
2013-08-12 22:00:00,51.0,-99.9,-100.00,West,261,90.0,-999.0,-999,-99.99,,,0.00,,2013-08-13 04:00:00,
2013-08-12 22:53:00,51.0,-99.9,-100.00,West,261,90.0,-999.0,-999,-99.99,,,0.00,,2013-08-13 04:53:00,
2013-08-12 23:00:00,51.0,-99.9,-100.00,West,269,92.0,-999.0,-999,-99.99,,,0.00,,2013-08-13 05:00:00,
2013-08-12 23:52:00,51.0,-99.9,-100.00,West,269,92.0,-999.0,-999,-99.99,,,0.00,,2013-08-13 05:52:00,